Location: Newark
(53.3333°N, 83.7500°E)
Time: 18:30:00
(UTC+00:00)

Vanguard 2 - Pass Details

Date: 23 November 2019
Orbit: 553 x 2938 km, 32.9° (Epoch: 12 December)

Event Time Altitude Azimuth Distance (km) Brightness Sun altitude
Rises 01:18:27 0° 219° (SW) 6,088 12.0 -6.6°
Reaches altitude 10° 01:24:48 10° 203° (SSW) 4,603 11.5 -5.8°
Maximum altitude 01:31:25 17° 170° (S) 3,493 11.4 -4.9°
Drops below altitude 10° 01:36:38 10° 135° (SE) 3,475 12.5 -4.2°
Sets 01:40:23 0° 114° (ESE) 4,045 14.1 -3.7°
